Port Angeles, WA
on Tuesday, January 29, 2013

Tuesday
Previous Day Next Day
Daily Summary
 ActualAverageRecord
Temperature
Mean Temperature °F °F  
Max Temperature 50°F 45°F 57°F (1998)
Min Temperature 44°F 34°F 13°F (1950)
Degree Days
Heating Degree Days 18    
Moisture
Dew Point 41°F   
Average Humidity 81    
Maximum Humidity 93    
Minimum Humidity 66    
Precipitation
Precipitation 0.00 in in in ()
Wind
Wind Speed 9 mph   
Max Wind Speed 20 mph   
Max Gust Speed 26 mph   
Visibility 10 miles   
Events Rain   
Averages and records for this station are not official NWS values.
Key: T is trace of precipitation, MM is missing value
Source: NWS Daily Summary
Seasonal Weather Averages
Time(PST)TemperatureDew PointHumidity Pressure Visibility Wind DirectionWind SpeedGust SpeedPrecipitationEvents Conditions
12:53 AM 48.0°F 37.0°F 66% 30.08 in 10.0 miles WNW 15.0 mph 23.0 mph N/A   Overcast
1:53 AM 48.0°F 37.0°F 66% 30.09 in 10.0 miles West 19.6 mph 26.5 mph N/A   Overcast
2:53 AM 48.0°F 37.9°F 68% 30.10 in 10.0 miles WNW 15.0 mph 21.9 mph N/A   Overcast
3:53 AM 46.0°F 37.9°F 73% 30.13 in 10.0 miles WSW 6.9 mph 23.0 mph N/A   Overcast
4:53 AM 45.0°F 37.9°F 76% 30.14 in 10.0 miles WSW 13.8 mph - 0.00 in   Overcast
5:53 AM 46.0°F 39.0°F 76% 30.16 in 10.0 miles West 10.4 mph 19.6 mph 0.00 in   Overcast
6:53 AM 46.9°F 39.0°F 74% 30.18 in 10.0 miles WNW 11.5 mph - N/A   Overcast
7:53 AM 46.0°F 37.9°F 73% 30.20 in 10.0 miles West 9.2 mph - N/A   Overcast
8:53 AM 45.0°F 37.9°F 76% 30.22 in 10.0 miles West 6.9 mph - N/A   Mostly Cloudy
9:53 AM 46.0°F 39.0°F 76% 30.25 in 10.0 miles WSW 8.1 mph - N/A   Scattered Clouds
10:53 AM 46.9°F 41.0°F 80% 30.27 in 10.0 miles WNW 8.1 mph - N/A   Overcast
11:53 AM 48.9°F 43.0°F 80% 30.28 in 10.0 miles NW 8.1 mph - N/A   Overcast
12:53 PM 50.0°F 43.0°F 77% 30.28 in 10.0 miles NW 11.5 mph - N/A   Overcast
1:53 PM 48.9°F 43.0°F 80% 30.28 in 10.0 miles West 3.5 mph - N/A   Overcast
2:53 PM 50.0°F 43.0°F 77% 30.29 in 10.0 miles Calm Calm - N/A   Overcast
3:42 PM 48.9°F 43.0°F 80% 30.29 in 10.0 miles ESE 5.8 mph - N/A   Overcast
3:53 PM 48.9°F 43.0°F 80% 30.30 in 10.0 miles East 5.8 mph - N/A   Overcast
4:53 PM 48.0°F 43.0°F 83% 30.30 in 10.0 miles ESE 3.5 mph - N/A   Overcast
5:17 PM 48.0°F 43.0°F 83% 30.30 in 10.0 miles East 4.6 mph - N/A   Mostly Cloudy
5:46 PM 46.9°F 42.1°F 83% 30.30 in 10.0 miles SSE 4.6 mph - N/A   Overcast
5:53 PM 46.9°F 42.1°F 83% 30.31 in 10.0 miles SE 4.6 mph - N/A   Overcast
6:12 PM 46.9°F 42.1°F 83% 30.31 in 10.0 miles Calm Calm - N/A   Overcast
6:41 PM 46.9°F 43.0°F 86% 30.30 in 10.0 miles Calm Calm - 0.00 in Rain Light Rain
6:53 PM 46.9°F 43.0°F 86% 30.30 in 10.0 miles West 3.5 mph - 0.00 in Rain Light Rain
7:53 PM 45.0°F 43.0°F 93% 30.30 in 10.0 miles SE 5.8 mph - 0.00 in   Overcast
8:38 PM 45.0°F 43.0°F 93% 30.29 in 10.0 miles SE 4.6 mph - 0.00 in   Overcast
8:53 PM 46.0°F 43.0°F 89% 30.31 in 10.0 miles SSE 4.6 mph - 0.00 in   Overcast
9:04 PM 46.0°F 43.0°F 89% 30.30 in 10.0 miles SSE 6.9 mph - 0.00 in Rain Light Rain
9:25 PM 46.0°F 43.0°F 89% 30.30 in 10.0 miles SSE 8.1 mph - 0.00 in Rain Light Rain
9:53 PM 44.6°F 42.8°F 93% 30.29 in 10.0 miles SE 4.6 mph - N/A Rain Light Rain
10:53 PM 46.0°F 43.0°F 89% 30.30 in 10.0 miles SSE 5.8 mph - 0.00 in   Overcast
11:53 PM 45.0°F 43.0°F 93% 30.30 in 10.0 miles Calm Calm - N/A   Overcast
Moon Phase
Jan. 29 Feb. 03 Feb. 10 Feb. 17 Feb. 25
Sunrise:07:45 AM (PST) Moon Rise:08:30 PM (PST)1/29
Sunset:05:09 PM (PST) Moon Set:08:28 AM (PST)1/29

Copyright © 2014 The Weather Underground, Inc.